When you browse on this site, cookies collect data to enhance your experience and personalize the content and advertising you see.
Visit our Privacy Policy to learn more. By continuing to use the site, you agree to this use of cookies and data.
  • In Lithuania
  • List of Countries
  • For 7 days
  • Water Temperature
  • Satellite Maps
  • Weather Map
  • Weather Widgets
  • user-avatar
    Login

    Hourly Weather Neuquén

    Today, 18 February, Monday

    Time Temperature Precipitation Wind Pressure Humidity
    00:00 +31°C° 0 mm 13 mps 727 mmHg 22%
    01:00 +28°C° 0 mm 13 mps 727 mmHg 24%
    02:00 +28°C° 0 mm 12 mps 727 mmHg 26%
    03:00 +27°C° 0 mm 12 mps 727 mmHg 28%
    04:00 +26°C° 0 mm 11 mps 727 mmHg 30%
    05:00 +26°C° 0 mm 11 mps 728 mmHg 29%
    06:00 +27°C° 0 mm 11 mps 728 mmHg 27%
    07:00 +27°C° 0 mm 11 mps 729 mmHg 26%
    08:00 +28°C° 0 mm 11 mps 729 mmHg 23%
    09:00 +31°C° 0 mm 11 mps 729 mmHg 19%
    10:00 +32°C° 0 mm 11 mps 729 mmHg 16%
    11:00 +34°C° 0 mm 11 mps 729 mmHg 13%
    12:00 +36°C° 0 mm 11 mps 729 mmHg 11%
    13:00 +37°C° 0 mm 11 mps 729 mmHg 8%
    14:00 +37°C° 0 mm 10 mps 729 mmHg 9%
    15:00 +37°C° 0 mm 9 mps 728 mmHg 11%
    16:00 +37°C° 0 mm 8 mps 728 mmHg 13%
    17:00 +35°C° 0 mm 8 mps 728 mmHg 17%
    18:00 +34°C° 0 mm 9 mps 729 mmHg 20%
    19:00 +33°C° 0 mm 9 mps 729 mmHg 24%
    20:00 +32°C° 0 mm 8 mps 729 mmHg 27%
    21:00 +29°C° 0 mm 8 mps 730 mmHg 29%
    22:00 +28°C° 0 mm 8 mps 730 mmHg 32%
    23:00 +27°C° 0 mm 8 mps 730 mmHg 35%

    Tomorrow, 19 February, Tuesday

    Time Temperature Precipitation Wind Pressure Humidity
    00:00 +27°C° 0 mm 7 mps 730 mmHg 38%
    01:00 +26°C° 0 mm 6 mps 730 mmHg 41%
    02:00 +25°C° 0 mm 5 mps 730 mmHg 42%
    03:00 +25°C° 0 mm 4 mps 730 mmHg 44%
    04:00 +24°C° 0 mm 3 mps 730 mmHg 46%
    05:00 +24°C° 0 mm 3 mps 730 mmHg 45%
    06:00 +25°C° 0 mm 3 mps 730 mmHg 43%
    07:00 +25°C° 0 mm 3 mps 730 mmHg 42%
    08:00 +27°C° 0 mm 4 mps 730 mmHg 36%
    09:00 +29°C° 0 mm 6 mps 730 mmHg 30%
    10:00 +32°C° 0 mm 8 mps 729 mmHg 24%
    11:00 +33°C° 0 mm 8 mps 729 mmHg 22%
    12:00 +35°C° 0 mm 8 mps 728 mmHg 20%
    13:00 +37°C° 0 mm 8 mps 728 mmHg 19%
    14:00 +37°C° 0 mm 10 mps 728 mmHg 20%
    15:00 +36°C° 0 mm 11 mps 727 mmHg 21%
    16:00 +36°C° 0 mm 12 mps 727 mmHg 21%
    17:00 +33°C° 0 mm 11 mps 727 mmHg 24%
    18:00 +32°C° 0 mm 11 mps 728 mmHg 27%
    19:00 +29°C° 0 mm 10 mps 728 mmHg 29%
    20:00 +28°C° 0 mm 10 mps 728 mmHg 32%
    21:00 +27°C° 0 mm 10 mps 729 mmHg 35%
    22:00 +26°C° 0 mm 10 mps 729 mmHg 38%
    23:00 +24°C° 0 mm 10 mps 729 mmHg 40%

    Day after tomorrow, 20 February, Wednesday

    Time Temperature Precipitation Wind Pressure Humidity
    00:00 +24°C° 0 mm 10 mps 729 mmHg 42%
    01:00 +23°C° 0 mm 9 mps 728 mmHg 44%
    02:00 +22°C° 0 mm 9 mps 728 mmHg 45%
    03:00 +22°C° 0 mm 8 mps 728 mmHg 47%
    04:00 +22°C° 0 mm 7 mps 728 mmHg 48%
    05:00 +22°C° 0 mm 7 mps 728 mmHg 46%
    06:00 +23°C° 0 mm 6 mps 728 mmHg 44%
    07:00 +23°C° 0 mm 6 mps 729 mmHg 42%
    08:00 +26°C° 0 mm 6 mps 729 mmHg 37%
    09:00 +28°C° 0 mm 6 mps 729 mmHg 31%
    10:00 +30°C° 0 mm 6 mps 729 mmHg 26%
    11:00 +33°C° 0 mm 7 mps 728 mmHg 22%
    12:00 +34°C° 0 mm 7 mps 728 mmHg 19%
    13:00 +37°C° 0 mm 8 mps 727 mmHg 16%
    14:00 +37°C° 0 mm 9 mps 727 mmHg 14%
    15:00 +38°C° 0 mm 11 mps 726 mmHg 12%
    16:00 +38°C° 0 mm 12 mps 726 mmHg 10%
    17:00 +36°C° 0 mm 11 mps 726 mmHg 12%
    18:00 +34°C° 0 mm 11 mps 727 mmHg 13%
    19:00 +32°C° 0 mm 10 mps 727 mmHg 15%
    20:00 +29°C° 0 mm 10 mps 728 mmHg 17%
    21:00 +28°C° 0 mm 9 mps 728 mmHg 19%
    22:00 +27°C° 0 mm 9 mps 729 mmHg 21%
    23:00 +26°C° 0 mm 9 mps 729 mmHg 23%

    21 February, Thursday

    Time Temperature Precipitation Wind Pressure Humidity
    00:00 +24°C° 0 mm 8 mps 729 mmHg 26%
    01:00 +23°C° 0 mm 8 mps 729 mmHg 28%
    02:00 +22°C° 0 mm 8 mps 730 mmHg 30%
    03:00 +22°C° 0 mm 8 mps 730 mmHg 31%
    04:00 +21°C° 0 mm 8 mps 730 mmHg 33%
    05:00 +21°C° 0 mm 8 mps 731 mmHg 33%
    06:00 +22°C° 0 mm 8 mps 732 mmHg 32%
    07:00 +22°C° 0 mm 8 mps 732 mmHg 32%
    08:00 +24°C° 0 mm 7 mps 733 mmHg 29%
    09:00 +26°C° 0 mm 6 mps 733 mmHg 26%
    10:00 +28°C° 0 mm 5 mps 733 mmHg 22%
    11:00 +29°C° 0 mm 5 mps 733 mmHg 22%
    12:00 +29°C° 0 mm 5 mps 732 mmHg 21%
    13:00 +30°C° 0 mm 4 mps 732 mmHg 21%
    14:00 +32°C° 0 mm 4 mps 732 mmHg 20%
    15:00 +32°C° 0 mm 5 mps 731 mmHg 20%
    16:00 +32°C° 0 mm 5 mps 731 mmHg 20%
    17:00 +30°C° 0.1 mm 5 mps 731 mmHg 22%
    18:00 +29°C° 0.1 mm 5 mps 732 mmHg 24%
    19:00 +28°C° 0.1 mm 6 mps 732 mmHg 27%
    20:00 +28°C° 0 mm 5 mps 733 mmHg 27%
    21:00 +27°C° 0 mm 5 mps 733 mmHg 28%
    22:00 +27°C° 0 mm 5 mps 734 mmHg 28%
    23:00 +26°C° 0 mm 5 mps 734 mmHg 28%

    22 February, Friday

    Time Temperature Precipitation Wind Pressure Humidity
    00:00 +24°C° 0 mm 6 mps 734 mmHg 28%
    01:00 +23°C° 0 mm 6 mps 734 mmHg 28%
    02:00 +22°C° 0 mm 6 mps 734 mmHg 27%
    03:00 +22°C° 0 mm 5 mps 733 mmHg 26%
    04:00 +21°C° 0 mm 5 mps 733 mmHg 26%
    05:00 +21°C° 0 mm 5 mps 734 mmHg 23%
    06:00 +22°C° 0 mm 5 mps 734 mmHg 21%
    07:00 +22°C° 0 mm 5 mps 734 mmHg 19%
    08:00 +25°C° 0 mm 5 mps 734 mmHg 20%
    09:00 +26°C° 0 mm 4 mps 734 mmHg 21%
    10:00 +27°C° 0 mm 3 mps 734 mmHg 22%
    11:00 +28°C° 0 mm 4 mps 733 mmHg 22%
    12:00 +30°C° 0 mm 4 mps 733 mmHg 21%
    13:00 +32°C° 0 mm 5 mps 732 mmHg 20%
    14:00 +32°C° 0 mm 4 mps 732 mmHg 20%
    15:00 +31°C° 0 mm 3 mps 731 mmHg 20%
    16:00 +31°C° 0 mm 2 mps 730 mmHg 20%
    17:00 +31°C° 0 mm 1 mps 730 mmHg 21%
    18:00 +30°C° 0 mm 1 mps 730 mmHg 22%
    19:00 +29°C° 0 mm 1 mps 730 mmHg 23%
    20:00 +29°C° 0 mm 3 mps 730 mmHg 22%
    21:00 +28°C° 0 mm 4 mps 730 mmHg 21%
    22:00 +28°C° 0 mm 6 mps 730 mmHg 21%
    23:00 +26°C° 0 mm 7 mps 730 mmHg 18%

    23 February, Saturday

    Time Temperature Precipitation Wind Pressure Humidity
    00:00 +24°C° 0 mm 8 mps 730 mmHg 16%
    01:00 +23°C° 0 mm 9 mps 729 mmHg 14%
    02:00 +22°C° 0 mm 9 mps 729 mmHg 16%
    03:00 +21°C° 0 mm 9 mps 729 mmHg 17%
    04:00 +19°C° 0 mm 9 mps 728 mmHg 19%
    05:00 +21°C° 0 mm 9 mps 728 mmHg 18%
    06:00 +21°C° 0 mm 10 mps 729 mmHg 18%
    07:00 +21°C° 0 mm 11 mps 729 mmHg 17%
    08:00 +23°C° 0 mm 11 mps 729 mmHg 15%
    09:00 +26°C° 0 mm 11 mps 729 mmHg 13%
    10:00 +27°C° 0 mm 11 mps 729 mmHg 11%
    11:00 +28°C° 0 mm 11 mps 728 mmHg 10%
    12:00 +29°C° 0 mm 11 mps 727 mmHg 9%
    13:00 +31°C° 0 mm 11 mps 727 mmHg 8%
    14:00 +31°C° 0 mm 12 mps 726 mmHg 9%
    15:00 +31°C° 0 mm 13 mps 726 mmHg 11%
    16:00 +29°C° 0 mm 14 mps 726 mmHg 12%
    17:00 +27°C° 0 mm 15 mps 726 mmHg 17%
    18:00 +23°C° 0 mm 15 mps 727 mmHg 21%
    19:00 +20°C° 0 mm 16 mps 727 mmHg 26%
    20:00 +19°C° 0 mm 14 mps 728 mmHg 28%
    21:00 +18°C° 0 mm 13 mps 729 mmHg 30%
    22:00 +17°C° 0 mm 12 mps 730 mmHg 32%
    23:00 +17°C° 0 mm 11 mps 730 mmHg 34%
    Show more